| time (UTC) | temp F | wind direction | speed knots | gust knots | rain 1hr in | rain 24hr in | rain mn in | humidity % | barometer mb |
| 20260504110618 | 47 | 141 | 9.6 | 11.3 | 0.00 | 0.01 | 0.01 | 81 | 1009.2 |
| 20260504110114 | 47 | 148 | 11.3 | 13.0 | 0.00 | 0.01 | 0.01 | 82 | 1009.2 |
| 20260504100539 | 47 | 153 | 13.0 | 14.8 | 0.00 | 0.01 | 0.01 | 80 | 1009.4 |
| 20260504081933 | 46 | 155 | 10.4 | 15.6 | 0.00 | 0.00 | 0.00 | 85 | 1009.5 |
| 20260504081430 | 46 | 163 | 8.7 | 14.8 | 0.00 | 0.00 | 0.00 | 85 | 1009.6 |
| 20260504080926 | 47 | 171 | 10.4 | 14.8 | 0.00 | 0.00 | 0.00 | 81 | 1009.8 |
| 20260504080423 | 47 | 162 | 11.3 | 15.6 | 0.00 | 0.00 | 0.00 | 79 | 1009.7 |
| 20260504070351 | 47 | 159 | 7.8 | 13.0 | 0.00 | 0.00 | 0.00 | 75 | 1009.8 |
| 20260504050738 | 48 | 178 | 7.0 | 12.2 | 0.00 | 0.00 | 0.00 | 62 | 1010.2 |
| 20260504050235 | 48 | 185 | 7.8 | 9.6 | 0.00 | 0.00 | 0.00 | 62 | 1010.1 |
| 20260504045732 | 48 | 174 | 7.0 | 9.6 | 0.00 | 0.00 | 0.00 | 62 | 1010.1 |
| 20260504045227 | 48 | 196 | 6.1 | 10.4 | 0.00 | 0.00 | 0.00 | 62 | 1010.0 |
| 20260504044725 | 48 | 199 | 10.4 | 15.6 | 0.00 | 0.00 | 0.00 | 61 | 1010.2 |
| 20260504044222 | 48 | 178 | 4.3 | 8.7 | 0.00 | 0.00 | 0.00 | 61 | 1010.2 |
| 20260504043720 | 48 | 181 | 7.8 | 11.3 | 0.00 | 0.00 | 0.00 | 59 | 1010.0 |
| 20260504043216 | 48 | 180 | 7.8 | 11.3 | 0.00 | 0.00 | 0.00 | 59 | 1010.2 |
| 20260504042714 | 48 | 155 | 10.4 | 10.4 | 0.00 | 0.00 | 0.00 | 60 | 1010.2 |
| 20260504042210 | 48 | 175 | 7.0 | 9.6 | 0.00 | 0.00 | 0.00 | 58 | 1010.4 |
| 20260504041706 | 48 | 179 | 6.1 | 7.8 | 0.00 | 0.00 | 0.00 | 58 | 1010.3 |
| 20260504041202 | 48 | 193 | 7.0 | 11.3 | 0.00 | 0.00 | 0.00 | 57 | 1010.3 |
| 20260504040659 | 48 | 218 | 9.6 | 13.0 | 0.00 | 0.00 | 0.00 | 56 | 1010.2 |
| 20260504040156 | 47 | 214 | 8.7 | 11.3 | 0.00 | 0.00 | 0.00 | 57 | 1010.3 |
| 20260504035652 | 46 | 171 | 6.1 | 8.7 | 0.00 | 0.00 | 0.00 | 57 | 1010.2 |
| 20260504035150 | 47 | 163 | 7.8 | 11.3 | 0.00 | 0.00 | 0.00 | 54 | 1010.4 |
| 20260504034647 | 47 | 143 | 5.2 | 9.6 | 0.00 | 0.00 | 0.00 | 57 | 1010.4 |
| 20260504034144 | 47 | 153 | 7.8 | 10.4 | 0.00 | 0.00 | 0.00 | 56 | 1010.4 |
| 20260504033642 | 47 | 156 | 7.8 | 9.6 | 0.00 | 0.00 | 0.00 | 56 | 1010.5 |
| 20260504033139 | 48 | 150 | 8.7 | 13.0 | 0.00 | 0.00 | 0.00 | 53 | 1010.4 |
| 20260504032635 | 47 | 150 | 7.0 | 12.2 | 0.00 | 0.00 | 0.00 | 54 | 1010.1 |
| 20260504032133 | 46 | 163 | 6.1 | 9.6 | 0.00 | 0.00 | 0.00 | 56 | 1010.5 |
| 20260504031630 | 46 | 164 | 7.0 | 7.0 | 0.00 | 0.00 | 0.00 | 56 | 1010.4 |
| 20260504031126 | 45 | 170 | 5.2 | 7.8 | 0.00 | 0.00 | 0.00 | 56 | 1010.4 |
| 20260504030623 | 45 | 169 | 6.1 | 8.7 | 0.00 | 0.00 | 0.00 | 57 | 1010.3 |
| 20260504030119 | 44 | 154 | 5.2 | 7.8 | 0.00 | 0.00 | 0.00 | 58 | 1010.5 |
| 20260504025616 | 44 | 161 | 5.2 | 7.8 | 0.00 | 0.00 | 0.00 | 60 | 1010.3 |
| 20260504025113 | 44 | 150 | 5.2 | 7.0 | 0.00 | 0.00 | 0.00 | 58 | 1010.3 |
| 20260504024610 | 42 | 134 | 3.5 | 6.1 | 0.00 | 0.00 | 0.00 | 63 | 1010.3 |
| 20260504024107 | 41 | 142 | 5.2 | 6.1 | 0.00 | 0.00 | 0.00 | 64 | 1010.4 |
| 20260504023603 | 41 | 153 | 4.3 | 5.2 | 0.00 | 0.00 | 0.00 | 66 | 1010.5 |
| 20260504023059 | 41 | 147 | 4.3 | 6.1 | 0.00 | 0.00 | 0.00 | 66 | 1010.6 |
| 20260504022556 | 40 | 143 | 4.3 | 5.2 | 0.00 | 0.00 | 0.00 | 68 | 1010.5 |
| 20260504022052 | 40 | 137 | 3.5 | 4.3 | 0.00 | 0.00 | 0.00 | 68 | 1010.6 |
| 20260504021550 | 40 | 147 | 3.5 | 4.3 | 0.00 | 0.00 | 0.00 | 67 | 1010.7 |
| 20260504021046 | 42 | 140 | 5.2 | 6.1 | 0.00 | 0.00 | 0.00 | 61 | 1010.5 |
| 20260504020543 | 41 | 127 | 3.5 | 4.3 | 0.00 | 0.00 | 0.00 | 64 | 1010.6 |
| 20260504020040 | 42 | 149 | 4.3 | 5.2 | 0.00 | 0.00 | 0.00 | 61 | 1010.8 |
| 20260504015536 | 42 | 138 | 5.2 | 6.1 | 0.00 | 0.00 | 0.00 | 61 | 1010.9 |
| 20260504015032 | 41 | 139 | 6.1 | 6.1 | 0.00 | 0.00 | 0.00 | 64 | 1010.6 |
| 20260504014529 | 42 | 142 | 4.3 | 6.1 | 0.00 | 0.00 | 0.00 | 60 | 1010.9 |
| 20260504014026 | 41 | 136 | 6.1 | 6.1 | 0.00 | 0.00 | 0.00 | 63 | 1010.8 |
| 20260504013524 | 42 | 152 | 4.3 | 5.2 | 0.00 | 0.00 | 0.00 | 62 | 1010.8 |
| 20260504013020 | 43 | 129 | 4.3 | 4.3 | 0.00 | 0.00 | 0.00 | 59 | 1010.8 |
| 20260504012518 | 43 | 132 | 4.3 | 4.3 | 0.00 | 0.00 | 0.00 | 58 | 1010.8 |
| 20260504012016 | 43 | 174 | 2.6 | 2.6 | 0.00 | 0.00 | 0.00 | 59 | 1010.7 |
| 20260504011512 | 43 | 174 | 1.7 | 2.6 | 0.00 | 0.00 | 0.00 | 59 | 1010.6 |
| 20260504011008 | 44 | 151 | 1.7 | 4.3 | 0.00 | 0.00 | 0.00 | 58 | 1010.5 |
| 20260504010504 | 45 | 143 | 2.6 | 2.6 | 0.00 | 0.00 | 0.00 | 55 | 1010.9 |
| 20260504010000 | 44 | 139 | 2.6 | 4.3 | 0.00 | 0.00 | 0.00 | 53 | 1010.6 |
| 20260504005456 | 44 | 128 | 4.3 | 4.3 | 0.00 | 0.00 | 0.00 | 57 | 1010.5 |
| 20260504004954 | 44 | 128 | 5.2 | 6.1 | 0.00 | 0.00 | 0.00 | 58 | 1010.4 |
| 20260504004452 | 43 | 133 | 4.3 | 5.2 | 0.00 | 0.00 | 0.00 | 60 | 1010.4 |
| 20260504003949 | 43 | 132 | 2.6 | 2.6 | 0.00 | 0.00 | 0.00 | 59 | 1010.4 |
| 20260504003444 | 43 | 138 | 0.9 | 1.7 | 0.00 | 0.00 | 0.00 | 60 | 1010.5 |
| 20260504002942 | 43 | 138 | 0.0 | 1.7 | 0.00 | 0.00 | 0.00 | 60 | 1010.4 |
| 20260504002439 | 44 | 143 | 2.6 | 3.5 | 0.00 | 0.00 | 0.00 | 60 | 1010.1 |
| 20260504001936 | 46 | 187 | 1.7 | 2.6 | 0.00 | 0.00 | 0.00 | 54 | 1010.2 |
| 20260504001433 | 47 | 178 | 0.9 | 1.7 | 0.00 | 0.00 | 0.00 | 52 | 1010.1 |
| 20260504000930 | 48 | 194 | 0.0 | 1.7 | 0.00 | 0.00 | 0.00 | 49 | 1010.2 |
| 20260504000427 | 48 | 233 | 1.7 | 1.7 | 0.00 | 0.00 | 0.00 | 48 | 1010.1 |
| 20260503235924 | 49 | 230 | 0.0 | 2.6 | 0.00 | 0.00 | 0.00 | 48 | 1010.2 |
| 20260503235422 | 49 | 254 | 0.9 | 2.6 | 0.00 | 0.00 | 0.00 | 47 | 1010.1 |
| 20260503234919 | 50 | 237 | 2.6 | 4.3 | 0.00 | 0.00 | 0.00 | 45 | 1010.1 |
| 20260503234417 | 50 | 254 | 0.9 | 3.5 | 0.00 | 0.00 | 0.00 | 45 | 1010.2 |
| 20260503233914 | 50 | 257 | 1.7 | 3.5 | 0.00 | 0.00 | 0.00 | 46 | 1010.1 |
| 20260503233411 | 51 | 260 | 2.6 | 2.6 | 0.00 | 0.00 | 0.00 | 44 | 1010.0 |
| 20260503232907 | 51 | 261 | 0.9 | 2.6 | 0.00 | 0.00 | 0.00 | 45 | 1010.1 |
| 20260503232404 | 52 | 270 | 2.6 | 7.0 | 0.00 | 0.00 | 0.00 | 43 | 1010.1 |
| 20260503231902 | 52 | 257 | 0.0 | 3.5 | 0.00 | 0.00 | 0.00 | 44 | 1009.9 |
| 20260503231359 | 53 | 260 | 3.5 | 7.8 | 0.00 | 0.00 | 0.00 | 42 | 1009.9 |
| 20260503230855 | 54 | 262 | 3.5 | 5.2 | 0.00 | 0.00 | 0.00 | 43 | 1009.7 |
| 20260503230352 | 54 | 251 | 2.6 | 6.1 | 0.00 | 0.00 | 0.00 | 43 | 1009.8 |
| 20260503225850 | 53 | 261 | 4.3 | 5.2 | 0.00 | 0.00 | 0.00 | 44 | 1009.9 |
| 20260503225345 | 52 | 255 | 3.5 | 5.2 | 0.00 | 0.00 | 0.00 | 44 | 1009.9 |
| 20260503224842 | 52 | 268 | 4.3 | 7.0 | 0.00 | 0.00 | 0.00 | 43 | 1010.0 |
| 20260503224339 | 53 | 243 | 2.6 | 9.6 | 0.00 | 0.00 | 0.00 | 42 | 1009.9 |
| 20260503223837 | 54 | 256 | 7.0 | 8.7 | 0.00 | 0.00 | 0.00 | 41 | 1009.9 |
| 20260503223334 | 55 | 278 | 4.3 | 8.7 | 0.00 | 0.00 | 0.00 | 39 | 1009.8 |
| 20260503222830 | 55 | 268 | 3.5 | 7.8 | 0.00 | 0.00 | 0.00 | 40 | 1009.9 |
| 20260503222329 | 55 | 282 | 5.2 | 7.8 | 0.00 | 0.00 | 0.00 | 41 | 1009.9 |
| 20260503221826 | 55 | 251 | 3.5 | 5.2 | 0.00 | 0.00 | 0.00 | 43 | 1009.8 |
| 20260503221325 | 53 | 225 | 3.5 | 4.3 | 0.00 | 0.00 | 0.00 | 44 | 1009.8 |
| 20260503220821 | 53 | 255 | 6.1 | 7.8 | 0.00 | 0.00 | 0.00 | 42 | 1010.0 |
| 20260503220318 | 53 | 281 | 6.1 | 7.0 | 0.00 | 0.00 | 0.00 | 42 | 1009.9 |
| 20260503215814 | 53 | 256 | 3.5 | 12.2 | 0.00 | 0.00 | 0.00 | 43 | 1009.7 |
| 20260503215312 | 53 | 274 | 5.2 | 10.4 | 0.00 | 0.00 | 0.00 | 44 | 1009.8 |
| 20260503214810 | 54 | 286 | 3.5 | 6.1 | 0.00 | 0.00 | 0.00 | 42 | 1009.7 |
| 20260503214306 | 54 | 289 | 2.6 | 3.5 | 0.00 | 0.00 | 0.00 | 45 | 1009.6 |
| 20260503213804 | 54 | 276 | 2.6 | 5.2 | 0.00 | 0.00 | 0.00 | 42 | 1009.8 |
| 20260503213301 | 54 | 280 | 3.5 | 7.8 | 0.00 | 0.00 | 0.00 | 44 | 1009.8 |
| 20260503212758 | 56 | 326 | 1.7 | 7.0 | 0.00 | 0.00 | 0.00 | 43 | 1009.6 |
| 20260503212256 | 56 | 291 | 6.1 | 7.0 | 0.00 | 0.00 | 0.00 | 39 | 1009.7 |
| 20260503211753 | 55 | 248 | 1.7 | 5.2 | 0.00 | 0.00 | 0.00 | 42 | 1009.7 |
| 20260503211249 | 53 | 35 | 4.3 | 11.3 | 0.00 | 0.00 | 0.00 | 46 | 1009.6 |
| 20260503210744 | 53 | 79 | 3.5 | 3.5 | 0.00 | 0.00 | 0.00 | 47 | 1009.5 |
| 20260503210242 | 53 | 39 | 4.3 | 4.3 | 0.00 | 0.00 | 0.00 | 48 | 1009.5 |
| 20260503205742 | 52 | 77 | 2.6 | 3.5 | 0.00 | 0.00 | 0.00 | 47 | 1009.7 |
| 20260503205239 | 52 | 36 | 6.1 | 6.1 | 0.00 | 0.00 | 0.00 | 47 | 1009.6 |
| 20260503204735 | 54 | 49 | 6.1 | 9.6 | 0.00 | 0.00 | 0.00 | 45 | 1009.6 |
| 20260503204233 | 55 | 24 | 2.6 | 5.2 | 0.00 | 0.00 | 0.00 | 45 | 1009.8 |
| 20260503203731 | 54 | 285 | 4.3 | 5.2 | 0.00 | 0.00 | 0.00 | 42 | 1009.7 |
| 20260503203228 | 55 | 287 | 2.6 | 3.5 | 0.00 | 0.00 | 0.00 | 44 | 1009.6 |
| 20260503202725 | 53 | 280 | 1.7 | 2.6 | 0.00 | 0.00 | 0.00 | 45 | 1009.5 |
| 20260503202223 | 52 | 255 | 3.5 | 5.2 | 0.00 | 0.00 | 0.00 | 47 | 1009.7 |
| 20260503201721 | 52 | 349 | 2.6 | 4.3 | 0.00 | 0.00 | 0.00 | 45 | 1009.9 |
| 20260503201218 | 52 | 40 | 1.7 | 3.5 | 0.00 | 0.00 | 0.00 | 45 | 1009.8 |
| 20260503200714 | 52 | 226 | 0.9 | 2.6 | 0.00 | 0.00 | 0.00 | 43 | 1009.7 |
| 20260503200211 | 51 | 312 | 1.7 | 6.1 | 0.00 | 0.00 | 0.00 | 46 | 1009.8 |
| 20260503195707 | 51 | 10 | 0.9 | 7.8 | 0.00 | 0.00 | 0.00 | 48 | 1010.1 |
| 20260503195204 | 51 | 6 | 1.7 | 4.3 | 0.00 | 0.00 | 0.00 | 47 | 1010.1 |
| 20260503194701 | 51 | 36 | 2.6 | 7.8 | 0.00 | 0.00 | 0.00 | 52 | 1010.1 |
| 20260503194156 | 51 | 247 | 2.6 | 4.3 | 0.00 | 0.00 | 0.00 | 48 | 1010.1 |
| 20260503193654 | 51 | 356 | 2.6 | 8.7 | 0.00 | 0.00 | 0.00 | 45 | 1010.2 |
| 20260503193149 | 51 | 284 | 3.5 | 6.1 | 0.00 | 0.00 | 0.00 | 50 | 1010.4 |
| 20260503192645 | 51 | 318 | 6.1 | 7.8 | 0.00 | 0.00 | 0.00 | 46 | 1010.4 |
| 20260503192141 | 51 | 331 | 2.6 | 5.2 | 0.00 | 0.00 | 0.00 | 49 | 1010.5 |
| 20260503191638 | 51 | 304 | 4.3 | 7.0 | 0.00 | 0.00 | 0.00 | 49 | 1010.5 |
| 20260503191135 | 51 | 13 | 1.7 | 6.1 | 0.00 | 0.00 | 0.00 | 50 | 1010.7 |
| 20260503190632 | 50 | 271 | 3.5 | 4.3 | 0.00 | 0.00 | 0.00 | 49 | 1010.6 |
| 20260503190129 | 50 | 327 | 5.2 | 7.8 | 0.00 | 0.00 | 0.00 | 48 | 1010.8 |
| 20260503185625 | 51 | 284 | 4.3 | 5.2 | 0.00 | 0.00 | 0.00 | 50 | 1010.8 |
| 20260503185120 | 50 | 323 | 5.2 | 5.2 | 0.00 | 0.00 | 0.00 | 48 | 1010.9 |
| 20260503184616 | 50 | 329 | 7.0 | 9.6 | 0.00 | 0.00 | 0.00 | 49 | 1010.9 |
| 20260503184112 | 50 | 345 | 3.5 | 5.2 | 0.00 | 0.00 | 0.00 | 51 | 1010.7 |
| 20260503183609 | 50 | 348 | 2.6 | 4.3 | 0.00 | 0.00 | 0.00 | 50 | 1010.8 |
| 20260503183106 | 50 | 341 | 2.6 | 7.8 | 0.00 | 0.00 | 0.00 | 49 | 1010.6 |
| 20260503182605 | 51 | 341 | 4.3 | 7.8 | 0.00 | 0.00 | 0.00 | 49 | 1011.0 |
| 20260503182102 | 51 | 346 | 4.3 | 8.7 | 0.00 | 0.00 | 0.00 | 48 | 1011.1 |
| 20260503181559 | 50 | 295 | 5.2 | 7.8 | 0.00 | 0.00 | 0.00 | 50 | 1011.0 |
| 20260503181055 | 50 | 317 | 7.8 | 8.7 | 0.00 | 0.00 | 0.00 | 50 | 1011.1 |
| 20260503180553 | 50 | 323 | 3.5 | 7.0 | 0.00 | 0.00 | 0.00 | 49 | 1011.2 |
| 20260503180050 | 50 | 331 | 3.5 | 7.0 | 0.00 | 0.00 | 0.00 | 49 | 1011.0 |
| 20260503175547 | 50 | 350 | 2.6 | 6.1 | 0.00 | 0.00 | 0.00 | 50 | 1011.0 |
| 20260503175045 | 51 | 317 | 5.2 | 6.1 | 0.00 | 0.00 | 0.00 | 49 | 1010.9 |
| 20260503174542 | 50 | 6 | 1.7 | 5.2 | 0.00 | 0.00 | 0.00 | 54 | 1011.1 |
| 20260503174038 | 50 | 284 | 1.7 | 2.6 | 0.00 | 0.00 | 0.00 | 54 | 1011.4 |
| 20260503173533 | 50 | 329 | 1.7 | 2.6 | 0.00 | 0.00 | 0.00 | 54 | 1011.3 |
| 20260503173029 | 49 | 356 | 1.7 | 4.3 | 0.00 | 0.00 | 0.00 | 52 | 1011.2 |
| 20260503172527 | 50 | 95 | 1.7 | 2.6 | 0.00 | 0.00 | 0.00 | 54 | 1011.2 |
| 20260503172024 | 50 | 29 | 2.6 | 2.6 | 0.00 | 0.00 | 0.00 | 53 | 1011.2 |
| 20260503171521 | 49 | 289 | 1.7 | 3.5 | 0.00 | 0.00 | 0.00 | 54 | 1011.4 |
| 20260503171018 | 49 | 57 | 3.5 | 5.2 | 0.00 | 0.00 | 0.00 | 54 | 1011.2 |
| 20260503170514 | 49 | 25 | 3.5 | 3.5 | 0.00 | 0.00 | 0.00 | 58 | 1011.3 |
| 20260503150907 | 48 | 24 | 4.3 | 9.6 | 0.00 | 0.00 | 0.00 | 62 | 1012.0 |
| 20260503150403 | 49 | 26 | 4.3 | 5.2 | 0.00 | 0.00 | 0.00 | 58 | 1012.0 |
| 20260503131256 | 47 | 351 | 3.5 | 6.1 | 0.00 | 0.00 | 0.00 | 67 | 1012.8 |
| 20260503130754 | 46 | 35 | 2.6 | 6.1 | 0.00 | 0.00 | 0.00 | 69 | 1012.7 |
| 20260503130251 | 47 | 326 | 4.3 | 7.8 | 0.00 | 0.00 | 0.00 | 67 | 1012.8 |
| 20260503120217 | 43 | 23 | 3.5 | 4.3 | 0.00 | 0.00 | 0.00 | 84 | 1012.7 |